Address 0x57d8a7bf9e7f4113c49e077b140fd8e1d7f78a76 3

Txn Hash Method
Block
From
To
Value [Txn Fee]
0xf885ae55fffb3ccdc2fb1301451f4935d7c139fda80c6a6ac9a065630b87e5b5Report242297182024-02-24 23:54:492 mins ago0x57d8a7bf9e7f4113c49e077b140fd8e1d7f78a76OUT Celo: Sorted Oracles Proxy0 CELO0.0021273
0x015850f684a0d233457f8efa776599f48f6afecddba2231f82677d9813f370a6Report242296682024-02-24 23:50:396 mins ago0x57d8a7bf9e7f4113c49e077b140fd8e1d7f78a76OUT Celo: Sorted Oracles Proxy0 CELO0.0019473375
0x03007e094c4cba78e102297de6ab83072a4e6e21551faee81d0e68c40347dbe6Report242296182024-02-24 23:46:2910 mins ago0x57d8a7bf9e7f4113c49e077b140fd8e1d7f78a76OUT Celo: Sorted Oracles Proxy0 CELO0.0019624275
0xba95f68f56d28641513c72c4a0890a50091158ec9f09224038b87e72adf0cb98Report242295682024-02-24 23:42:1915 mins ago0x57d8a7bf9e7f4113c49e077b140fd8e1d7f78a76OUT Celo: Sorted Oracles Proxy0 CELO0.0021641025
0x431e2bd712c95bdea97e8d6f509d799b2233ee08f1a1cfef359a0ee278669854Report242295182024-02-24 23:38:0919 mins ago0x57d8a7bf9e7f4113c49e077b140fd8e1d7f78a76OUT Celo: Sorted Oracles Proxy0 CELO0.0017645775
0x94c0fd3e5de74a90792904aa7e11cedf30a7e9309770d568ddcd03b0298fbf57Report242294682024-02-24 23:33:5923 mins ago0x57d8a7bf9e7f4113c49e077b140fd8e1d7f78a76OUT Celo: Sorted Oracles Proxy0 CELO0.0020141925
0x77375ef1d1f37983c5621ad539a26889e9de7f68cb6f2afda46b2c8662afc1e4Report242294182024-02-24 23:29:4927 mins ago0x57d8a7bf9e7f4113c49e077b140fd8e1d7f78a76OUT Celo: Sorted Oracles Proxy0 CELO0.0020733975
0x0aa7fa43f0d0d790ebdb7187f81a1685fcd9f3a99d19e0c578b1c22ae155cc65Report242293682024-02-24 23:25:3931 mins ago0x57d8a7bf9e7f4113c49e077b140fd8e1d7f78a76OUT Celo: Sorted Oracles Proxy0 CELO0.001994535
0x35512be6a1791f5404601ef7652e7ab646dfd3c7f7886c83eb58bb9697e7963aReport242293182024-02-24 23:21:2935 mins ago0x57d8a7bf9e7f4113c49e077b140fd8e1d7f78a76OUT Celo: Sorted Oracles Proxy0 CELO0.00212748
0x9f0a1f5d7958d180d6f4ac46419a20644426d58ef0f492a544a974f858c78869Report242292682024-02-24 23:17:1940 mins ago0x57d8a7bf9e7f4113c49e077b140fd8e1d7f78a76OUT Celo: Sorted Oracles Proxy0 CELO0.0021424125
0x3112ef713dffc9fd88d56ae4f9455dd9b5a0039545e1e4e96ee1ec8b9f3a9270Report242292182024-02-24 23:13:0944 mins ago0x57d8a7bf9e7f4113c49e077b140fd8e1d7f78a76OUT Celo: Sorted Oracles Proxy0 CELO0.001879665
0xc96bd19ee307799478be2a1e001bc34e2d09a0230d7a7f59617d0f7e97b9697eReport242291682024-02-24 23:08:5948 mins ago0x57d8a7bf9e7f4113c49e077b140fd8e1d7f78a76OUT Celo: Sorted Oracles Proxy0 CELO0.0021341025
0x8384a4f56feb7797b4c19b5cc548bf35788b0895fb8dde1b42671a03784871f1Report242291182024-02-24 23:04:4952 mins ago0x57d8a7bf9e7f4113c49e077b140fd8e1d7f78a76OUT Celo: Sorted Oracles Proxy0 CELO0.0019173075
0x5742adf52a434d12bcda8dc6216d676c2ae4fda50e62f2a4cf6973b94435b988Report242290882024-02-24 23:02:1955 mins ago0x57d8a7bf9e7f4113c49e077b140fd8e1d7f78a76OUT Celo: Sorted Oracles Proxy0 CELO0.0025598325
0x1b42d58306b2115574608076bbdf62914dec1135d0d34b1cfca5edec67cb0059Report242290182024-02-24 22:56:291 hr ago0x57d8a7bf9e7f4113c49e077b140fd8e1d7f78a76OUT Celo: Sorted Oracles Proxy0 CELO0.0022183425
0x06575d8847ed2f7cc89616dcf97f859fc85ef9fcfce3ec2b42cfad72d97c52e6Report242289682024-02-24 22:52:191 hr 5 mins ago0x57d8a7bf9e7f4113c49e077b140fd8e1d7f78a76OUT Celo: Sorted Oracles Proxy0 CELO0.002075625
0x8af8233ec356584bca38484570aabb98d0c15ac7b873280a1fd728f91351a017Report242289182024-02-24 22:48:091 hr 9 mins ago0x57d8a7bf9e7f4113c49e077b140fd8e1d7f78a76OUT Celo: Sorted Oracles Proxy0 CELO0.0021641025
0x9bb4d97bff823cf969d3cdf21a6b1a40ba42f9e599a4c5e0acf09f4a7567605eReport242288682024-02-24 22:43:591 hr 13 mins ago0x57d8a7bf9e7f4113c49e077b140fd8e1d7f78a76OUT Celo: Sorted Oracles Proxy0 CELO0.0022182525
0x437b5a96c5268a6e1752bf02fe1b72f90b21f712b52f70a9d8032655a93b3d06Report242288182024-02-24 22:39:491 hr 17 mins ago0x57d8a7bf9e7f4113c49e077b140fd8e1d7f78a76OUT Celo: Sorted Oracles Proxy0 CELO0.001909665
0xb78eab093b7d6d025c81031ca78690bc8016462dff89f4ab32bb29d03bfc792cReport242287682024-02-24 22:35:391 hr 21 mins ago0x57d8a7bf9e7f4113c49e077b140fd8e1d7f78a76OUT Celo: Sorted Oracles Proxy0 CELO0.0021641025
0xe4b5a1031050ec64009d1b2ca34b2ba648142e4e67f7c54292f7fcae04de3869Report242287172024-02-24 22:31:241 hr 25 mins ago0x57d8a7bf9e7f4113c49e077b140fd8e1d7f78a76OUT Celo: Sorted Oracles Proxy0 CELO0.0020433975
0x6c8e17ed905fda0ac066e7c1713127c8996bfe077eae0a3ad5ade46739ca1072Report242286682024-02-24 22:27:191 hr 30 mins ago0x57d8a7bf9e7f4113c49e077b140fd8e1d7f78a76OUT Celo: Sorted Oracles Proxy0 CELO0.00212748
0x128b985d63ec73df30ef1a797b0ce625ebd02f5cac4920406fde074fabdf05b2Report242286182024-02-24 22:23:091 hr 34 mins ago0x57d8a7bf9e7f4113c49e077b140fd8e1d7f78a76OUT Celo: Sorted Oracles Proxy0 CELO0.00197808
0x03f3665d5ec7115b46f27c956d31a34022f5cbe1389832b0aaafbb5bb4d5dca4Report242285682024-02-24 22:18:591 hr 38 mins ago0x57d8a7bf9e7f4113c49e077b140fd8e1d7f78a76OUT Celo: Sorted Oracles Proxy0 CELO0.001909665
0xd1e56003ece61f552035b45bbc9eeee73d69c6b1236a48f01e5f57f3ae7c9cf5Report242285172024-02-24 22:14:441 hr 42 mins ago0x57d8a7bf9e7f4113c49e077b140fd8e1d7f78a76OUT Celo: Sorted Oracles Proxy0 CELO0.0021341925
[ Download CSV Export 
Parent Txn Hash Block From To Value
Index Block
Loading

Contract Name:
0

Compiler Version
0

Optimization Enabled:
0

Other Settings:
-NA-
Block Transaction Gas Used Reward
Age Block Fee Address BC Fee Address Voting Power Jailed Incoming
Block Uncle Number Difficulty Gas Used Reward
Loading
Make sure to use the "Vote Down" button for any spammy posts, and the "Vote Up" for interesting conversations.